{"data":{"norad_id":56544,"intl_designator":"2023-065AT","name":"STARLINK-6226","alt_names":[],"object_type":"PAYLOAD","status":"ACTIVE","operator":null,"country":"US","launch_date":"2023-05-14","launch_site_code":"AFETR","launch_vehicle":null,"mission":null,"orbit_class":"UNKNOWN","rcs_meters":null,"size_class":null,"mass_kg":null,"dimensions":null,"purposes":["comms"],"wikipedia_slug":null,"has_3d_model":false,"image_url":null,"decayed_at":null,"tle_current":{"epoch":"2026-09-20T12:33:11.337696Z","epoch_age_seconds":112787,"freshness":"FRESH","line1":"1 56544U 23065AT  26263.52304789  .00000087  00000+0  12690-4 0  9993","line2":"2 56544  43.0014 202.9125 0000972 251.7560 108.3186 15.27575651186278","mean_motion":15.27575651,"eccentricity":9.72e-5,"inclination_deg":43.0014,"raan_deg":202.9125,"arg_perigee_deg":251.756,"mean_anomaly_deg":108.3186,"bstar":1.269e-5,"rev_number":18627,"period_min":94.267017090599,"perigee_km":482.39520998677,"apogee_km":483.72902709542,"semimajor_km":6861.1991185411,"source":"CELESTRAK","updated_at":"2026-09-21T09:00:33.477320Z"}}}